Погода в Гуарапуаве

Бразилия     25°22′22″S   51°27′38″W
темп.,
°C
ветер,
м/с
пор.,
м/с
влажн.,
%
обл.,
%
осадки,
мм/ч
давл.,
гПа
погр.,
м
27 февраля, сб
сб2700:00+16в412882 0.0 1016657
03:00+16вюв4118420 0.0 1015823
06:00+17вюв2108289 0.0 1015819
09:00+18в497956 0.0 1016758
12:00+23вюв356086 0.0 10151135
15:00+23вюв357559 0.7 10131097
18:00+19вюв411851 1.8 1013970
21:00+19вюв5147822 1.8 10151268
28 февраля, вс
вс2800:00+18в5128383 0.0 1015991
03:00+18в5128087 0.1 10141031
06:00+17в4108528 0.0 1014842
09:00+19в497442 0.0 1015830
12:00+20всв367275 0.0 1014735
15:00+25в235459 0.0 10111282
18:00+22в238131 1.1 1010410
21:00+17в2109842 2.6 1012332
1 марта, пн
пн100:00+17всв3109571 0.0 1013352
03:00+16св2109636 0.0 1012408
06:00+16св211960 0.0 1012414
09:00+21ссв38720 0.0 1013848
12:00+25с355751 0.2 10121370
15:00+22с239343 4.7 1010743
18:00+21ссв139790 4.8 1009101
21:00+17всв129995 12.4 101252
2 марта, вт
вт200:00+17св299993 7.1 1013305
03:00+17ссв2109859 8.1 1012345
06:00+16ссв299888 0.0 1013312
09:00+22с387554 0.0 1014882
12:00+24сз258464 2.3 10131228
15:00+23зсз149582 8.8 1011730
18:00+20с1298100 5.6 101187
21:00+18ссв2799100 15.0 1014233
3 марта, ср
ср300:00+17в28100100 1.1 1015292
03:00+17всв389999 1.1 1014324
06:00+16всв259938 0.4 1015141
09:00+22с277925 0.4 1016642
12:00+24сз24792 2.6 10141173
15:00+23сз138934 7.7 1013623
18:00+21юз1397100 6.7 101275
21:00+18всв1298100 10.2 101436